Davenport, IA

2:07 AM CDT on August 24, 2016 (GMT -0500)
Davenport Municipal

Weather History for KDVN - September, 2013

Change the Weather History Date:

Saturday, September 28, 2013

  Actual Average Record
Temperature  
Mean Temperature 65 °F 58 °F  
Max Temperature 80 °F 70 °F 90 °F (1952)
Min Temperature 49 °F 47 °F 35 °F (1951)
Degree Days  
Heating Degree Days 0 8  
Month to date heating degree days 66 104  
Since 1 July heating degree days 85 118  
Cooling Degree Days 0 1  
Month to date cooling degree days 138 66  
Year to date cooling degree days 911 770  
Growing Degree Days 15 (Base 50)    
Moisture  
Dew Point 57 °F    
Average Humidity 77    
Maximum Humidity 100    
Minimum Humidity 54    
Precipitation  
Precipitation 0.16 in 0.09 in 1.70 in (1999)
Month to date precipitation 1.62 2.88  
Year to date precipitation 30.01 28.70  
Snow  
Snow 0.00 in - - ()
Month to date snowfall 0.0  
Since 1 July snowfall 0.0  
Since 1 September snowfall 0.0  
Snow Depth 0.00 in    
Sea Level Pressure  
Sea Level Pressure 29.95 in    
Wind  
Wind Speed 11 mph (SW)    
Max Wind Speed 28 mph    
Max Gust Speed 37 mph    
Visibility 8 miles    
Events Rain    
T = Trace of Precipitation, MM = Missing Value Source: NWS Daily Summary

Daily Weather History Graph

Daily Weather History Graph

Search for Another Location

Airport or City:

Trip Planner

Search our weather history database for the weather conditions in past years. The results will help you decide how hot, cold, wet, or windy it might be!

Date:

Astronomy

Sep. 28, 2013 Rise Set
Actual Time 6:56 AM CDT 6:48 PM CDT
Civil Twilight 6:28 AM CDT 7:16 PM CDT
Nautical Twilight 5:56 AM CDT 7:48 PM CDT
Astronomical Twilight 5:23 AM CDT 8:21 PM CDT
Moon 12:39 AM CDT (9/28) 3:11 PM CDT (9/28)
Length of Visible Light 12h 47m
Length of Day
11h 52m
Waning Crescent, 36% of the Moon is Illuminated
Sep 28
Waning Crescent
Oct 4
New
Oct 11
First Quarter
Oct 18
Full
Oct 26
Last Quarter

Hourly Weather History & Observations

Time (CDT) Temp. Dew Point Humidity Pressure Visibility Wind Dir Wind Speed Gust Speed Precip Events Conditions
12:52 AM 66.0 °F 50.0 °F 56% 29.99 in 10.0 mi SSE 9.2 mph - N/A   Clear
1:52 AM 66.0 °F 52.0 °F 60% 29.99 in 10.0 mi SSE 11.5 mph - N/A   Clear
2:52 AM 64.0 °F 52.0 °F 65% 29.97 in 10.0 mi SSE 10.4 mph - N/A   Clear
3:52 AM 63.0 °F 52.0 °F 67% 29.97 in 10.0 mi SSE 10.4 mph - N/A   Clear
4:52 AM 64.0 °F 52.0 °F 65% 29.98 in 10.0 mi South 9.2 mph - N/A   Scattered Clouds
5:52 AM 64.0 °F 53.1 °F 67% 29.99 in 10.0 mi South 9.2 mph - N/A   Mostly Cloudy
6:52 AM 63.0 °F 52.0 °F 67% 29.99 in 10.0 mi SSE 9.2 mph - N/A   Scattered Clouds
7:52 AM 64.9 °F 53.1 °F 65% 29.99 in 10.0 mi South 10.4 mph - N/A   Overcast
8:52 AM 66.0 °F 54.0 °F 65% 29.97 in 10.0 mi SSE 10.4 mph - N/A   Scattered Clouds
9:52 AM 73.0 °F 57.9 °F 59% 29.95 in 10.0 mi SSE 11.5 mph 18.4 mph N/A   Clear
10:52 AM 78.1 °F 60.1 °F 54% 29.92 in 10.0 mi South 13.8 mph 24.2 mph N/A   Clear
11:52 AM 79.0 °F 60.1 °F 52% 29.91 in 10.0 mi South 19.6 mph 32.2 mph N/A   Scattered Clouds
12:52 PM 78.1 °F 60.1 °F 54% 29.89 in 10.0 mi South 17.3 mph 24.2 mph N/A   Overcast
1:52 PM 77.0 °F 60.1 °F 56% 29.88 in 10.0 mi South 16.1 mph 27.6 mph N/A   Overcast
2:52 PM 71.1 °F 64.0 °F 78% 29.89 in 5.0 mi SSW 11.5 mph 19.6 mph 0.01 in Rain Light Rain
3:36 PM 69.8 °F 64.4 °F 83% 29.89 in 7.0 mi SSW 16.1 mph 26.5 mph 0.01 in   Overcast
3:52 PM 70.0 °F 66.0 °F 87% 29.89 in 5.0 mi SSW 18.4 mph 26.5 mph 0.01 in Rain Light Rain
4:52 PM 70.0 °F 66.0 °F 87% 29.89 in 7.0 mi SSW 13.8 mph 23.0 mph 0.00 in   Overcast
5:43 PM 69.8 °F 66.2 °F 88% 29.89 in 5.0 mi SSW 10.4 mph 19.6 mph N/A   Overcast
5:52 PM 70.0 °F 66.0 °F 87% 29.89 in 4.0 mi SSW 10.4 mph - N/A   Overcast
6:33 PM 60.8 °F 57.2 °F 88% 29.93 in 2.5 mi WNW 18.4 mph 28.8 mph 0.05 in Rain Light Rain
6:40 PM 60.8 °F 57.2 °F 88% 29.94 in 3.0 mi NW 12.7 mph 27.6 mph 0.06 in Rain Rain
6:48 PM 60.8 °F 57.2 °F 88% 29.94 in 3.0 mi NW 13.8 mph 20.7 mph 0.07 in Rain Light Rain
6:52 PM 60.1 °F 57.9 °F 93% 29.94 in 3.0 mi WNW 12.7 mph 20.7 mph 0.08 in Rain Light Rain
7:06 PM 60.8 °F 57.2 °F 88% 29.96 in 8.0 mi WNW 9.2 mph - 0.00 in Rain Light Rain
7:15 PM 60.8 °F 57.2 °F 88% 29.96 in 6.0 mi WNW 9.2 mph - 0.00 in Rain Light Rain
7:52 PM 59.0 °F 57.0 °F 93% 29.96 in 4.0 mi NW 12.7 mph 18.4 mph 0.01 in Rain Light Rain
8:17 PM 57.2 °F 55.4 °F 94% 29.98 in 2.5 mi WNW 10.4 mph - 0.03 in Rain Rain
8:33 PM 57.2 °F 55.4 °F 94% 29.99 in 5.0 mi WNW 6.9 mph - 0.05 in Rain Light Rain
8:47 PM 57.2 °F 55.4 °F 94% 29.99 in 10.0 mi WNW 8.1 mph - 0.05 in   Overcast
8:52 PM 57.0 °F 55.0 °F 93% 29.99 in 10.0 mi WNW 8.1 mph - 0.05 in   Overcast
9:52 PM 55.9 °F 54.0 °F 93% 30.00 in 10.0 mi WNW 6.9 mph - N/A   Partly Cloudy
10:52 PM 54.0 °F 53.1 °F 97% 30.01 in 10.0 mi Calm Calm - N/A   Clear
11:52 PM 51.1 °F 50.0 °F 96% 30.03 in 9.0 mi Calm Calm - N/A   Clear
11:59 PM 51.8 °F 48.2 °F 88% 30.03 in 1.8 mi Calm Calm - N/A   Clear